Weather in Ust-Lopyu

Russia / Komi Republic     60°13′32″N   49°38′23″E
temp.,
°C
wind,
m/s
gust,
m/s
humid.,
%
clouds,
%
prec.,
mm/h
press.,
hPa
HPBL,
m
30 november, tue
tue3000:00−5ene41096100 0.4 1010256
03:00−3ene41397100 1.9 1005438
06:00−1e51296100 1.1 1001560
09:000e51398100 1.3 995708
12:00+1ese61598100 6.5 9901011
15:00+1sse61598100 8.2 985841
18:000sse51398100 1.4 982722
21:00+1s51499100 2.1 981643
1 december, wed
wed100:00+2s61396100 0.8 981918
03:00+1s61492100 2.2 9821344
06:000s61494100 0.6 9821283
09:00−1ssw71485100 1.2 9841178
12:00−2s61388100 0.1 9871214
15:00−3s41091100 0.2 987703
18:00−4s31093100 0.1 988447
21:00−7sse2497100 0.1 98769
2 december, thu
thu200:00−6ssw2796100 0.0 987207
03:00−5sw3895100 0.0 988454
06:00−6sw3894100 0.0 989424
09:00−7sw3894100 0.1 991444
12:00−6sw4992100 0.1 993693
15:00−7sw4109493 0.1 994568
18:00−7wsw4109498 0.2 995568
21:00−8wsw4994100 0.4 997581
3 december, fri
fri300:00−11wsw3994100 0.1 999367
03:00−14wsw259787 0.1 1000107
06:00−14ssw12100100 0.0 100126
09:00−11ssw1498100 0.1 100290
12:00−8sw1295100 0.1 1002183
15:00−8ene119797 0.4 100428
18:00−9ne239777 0.2 100663
21:00−12ene249782 0.3 100993
4 december, sat
sat400:00−12ene2696100 0.1 1011156
03:00−11e41095100 0.2 1011275
06:00−10e51394100 1.4 1009405
09:00−10e71794100 5.0 1005491
12:00−9e61794100 4.3 1002578
15:00−6ese51495100 8.3 999418
18:00−1wsw51187100 1.6 10021059
21:00−3sw5108493 1.6 1005855